"Pseudo-MPEC" for A10g1ms

Created 2019 Sep 13 15:07:02 UT using Find_Orb

Click here for an explanation of pseudo-MPECs

 
 Astrometry: 
     A10g1ms  C2019 09 08.56426703 29 05.46 +58 04 58.1    ~98FM 19.39oVNEOCPT08
     A10g1ms  C2019 09 08.56753303 29 10.41 +58 04 38.9    ~98FM 19.31oVNEOCPT08
     A10g1ms  C2019 09 08.57355003 29 19.45 +58 04 03.3    ~98FM 19.70oVNEOCPT08
     A10g1ms  C2019 09 08.58429903 29 35.82 +58 02 57.9    ~98FM 19.51oVNEOCPT08

Station data:
(T08) ATLAS-MLO, Mauna Loa  (N19.535772 W155.576400)  US/Hawaii.  Observers
   L. Denneau, A. Heinze, H. Weiland, J. Tonry, H. Flewelling, A.
   Fitzsimmons, D. Young, B. Stalder. Measurers L. Denneau, A. Heinze, J.
   Tonry. 0.5-m f/2.0 Schmidt + CCD.

Orbital elements:  A10g1ms
   Perihelion 2019 Nov 29.416617 +/- 26.9 TT =  9:59:55 (JD 2458816.916617)
Epoch 2019 Sep  9.0 TT = JDT 2458735.5   Earth MOID: 0.0069   AutoNEOCP
M 282.77696573 +/- 50               (J2000 ecliptic)
n   0.94849230 +/- 0.642            Peri.  264.04035 +/- 57
a   1.02592002 +/- 0.463            Node   175.06181 +/- 34
e   0.1250252 +/- 0.225             Incl.   11.07195 +/- 29
P   1.04/379.54d           H 23.5   G  0.15   U 12.4  SR
q 0.89765415 +/- 0.195    Q 1.15418590 +/- 21.4
From 4 observations 2019 Sept. 8 (28.8 min); mean residual 0".26
Residuals in arcseconds: 
190908 T08  .17+  .18-    190908 T08  .51-  .33+    
190908 T08  .13+  .00     190908 T08  .22+  .15-    

Ephemerides (geocentric):
Date (UTC) HH   RA              Dec         delta   r     elong  mag " sig PA
---- -- -- --  -------------   -----------  ------ ------ -----  --- ---- ---
2019 09 13 15  05 41 04.377   +40 32 43.79  .03409 1.0034  84.3 19.5  59d  48
2019 09 13 16  05 41 59.653   +40 19 42.67  .03405 1.0033  84.2 19.5  59d  48
2019 09 13 17  05 42 54.708   +40 06 38.05  .03401 1.0032  84.0 19.5  59d  48
2019 09 13 18  05 43 49.542   +39 53 29.98  .03397 1.0031  83.9 19.5  59d  48
2019 09 13 19  05 44 44.154   +39 40 18.49  .03394 1.0030  83.8 19.5  59d  48
2019 09 13 20  05 45 38.545   +39 27 03.64  .03390 1.0030  83.6 19.5  59d  48
2019 09 13 21  05 46 32.714   +39 13 45.46  .03386 1.0029  83.5 19.5  60d  48
2019 09 13 22  05 47 26.661   +39 00 24.00  .03382 1.0028  83.3 19.5  60d  47
2019 09 13 23  05 48 20.386   +38 46 59.30  .03379 1.0027  83.2 19.5  60d  47
2019 09 14 00  05 49 13.889   +38 33 31.41  .03376 1.0026  83.1 19.5  60d  47
2019 09 14 01  05 50 07.169   +38 20 00.38  .03372 1.0025  82.9 19.5  60d  47
2019 09 14 02  05 51 00.227   +38 06 26.24  .03369 1.0024  82.8 19.5  60d  47
2019 09 14 03  05 51 53.062   +37 52 49.05  .03366 1.0023  82.7 19.5  60d  47
2019 09 14 04  05 52 45.675   +37 39 08.86  .03363 1.0022  82.5 19.6  60d  47
2019 09 14 05  05 53 38.065   +37 25 25.72  .03360 1.0022  82.4 19.6  60d  47
2019 09 14 06  05 54 30.233   +37 11 39.66  .03357 1.0021  82.2 19.6  60d  47
2019 09 14 07  05 55 22.178   +36 57 50.75  .03354 1.0020  82.1 19.6  60d  47
2019 09 14 08  05 56 13.901   +36 43 59.04  .03351 1.0019  82.0 19.6  60d  46
2019 09 14 09  05 57 05.402   +36 30 04.57  .03348 1.0018  81.8 19.6  60d  46
2019 09 14 10  05 57 56.681   +36 16 07.39  .03346 1.0017  81.7 19.6  60d  46
2019 09 14 11  05 58 47.738   +36 02 07.56  .03343 1.0016  81.5 19.6  60d  46
2019 09 14 12  05 59 38.574   +35 48 05.13  .03341 1.0015  81.4 19.6  60d  46
2019 09 14 13  06 00 29.187   +35 34 00.15  .03338 1.0014  81.3 19.6  60d  46
2019 09 14 14  06 01 19.580   +35 19 52.68  .03336 1.0014  81.1 19.6  60d  46
2019 09 14 15  06 02 09.752   +35 05 42.77  .03334 1.0013  81.0 19.6  60d  46
2019 09 14 16  06 02 59.702   +34 51 30.47  .03332 1.0012  80.8 19.6  60d  46
2019 09 14 17  06 03 49.433   +34 37 15.84  .03330 1.0011  80.7 19.6  60d  46
2019 09 14 18  06 04 38.943   +34 22 58.93  .03328 1.0010  80.6 19.6  60d  45
2019 09 14 19  06 05 28.233   +34 08 39.81  .03326 1.0009  80.4 19.6  60d  45
2019 09 14 20  06 06 17.304   +33 54 18.51  .03324 1.0008  80.3 19.6  60d  45
2019 09 14 21  06 07 06.156   +33 39 55.11  .03322 1.0007  80.1 19.6  60d  45
2019 09 14 22  06 07 54.788   +33 25 29.66  .03321 1.0006  80.0 19.6  60d  45
2019 09 14 23  06 08 43.203   +33 11 02.22  .03319 1.0006  79.9 19.6  60d  45
2019 09 15 00  06 09 31.400   +32 56 32.83  .03318 1.0005  79.7 19.6  60d  45
2019 09 15 01  06 10 19.379   +32 42 01.57  .03317 1.0004  79.6 19.7  60d  45
2019 09 15 02  06 11 07.141   +32 27 28.49  .03315 1.0003  79.4 19.7  60d  45
2019 09 15 03  06 11 54.686   +32 12 53.64  .03314 1.0002  79.3 19.7  60d  45
2019 09 15 04  06 12 42.015   +31 58 17.09  .03313 1.0001  79.2 19.7  60d  45
2019 09 15 05  06 13 29.129   +31 43 38.89  .03312 1.0000  79.0 19.7  61d  44
2019 09 15 06  06 14 16.028   +31 28 59.11  .03311 0.9999  78.9 19.7  61d  44
2019 09 15 07  06 15 02.712   +31 14 17.79  .03310 0.9998  78.8 19.7  61d  44
2019 09 15 08  06 15 49.182   +30 59 35.02  .03310 0.9998  78.6 19.7  61d  44
2019 09 15 09  06 16 35.438   +30 44 50.83  .03309 0.9997  78.5 19.7  61d  44
2019 09 15 10  06 17 21.482   +30 30 05.29  .03308 0.9996  78.3 19.7  61d  44
2019 09 15 11  06 18 07.313   +30 15 18.47  .03308 0.9995  78.2 19.7  61d  44
2019 09 15 12  06 18 52.933   +30 00 30.42  .03307 0.9994  78.1 19.7  61d  44
2019 09 15 13  06 19 38.341   +29 45 41.20  .03307 0.9993  77.9 19.7  61d  44
2019 09 15 14  06 20 23.539   +29 30 50.87  .03307 0.9992  77.8 19.7  61d  44